Flag for U.S.A. Weather past 2 weeks in Racine, Wisconsin, U.S.A.

Now
61 °F

Sunny.


Feels Like: 61 °F
Forecast: 53 / 64 °F
Wind: 15 mph from Southeast

Location: Batten International Airport

Current Time: Oct 1, 2014 at 5:29:05 PM

Latest Report: Oct 1, 2014 at 4:53 PM


Visibility: 10 mi

Pressure: 29.94 "Hg

Humidity: 72%

Dew point: 52 °F

Location of RacineLocation

Historic Weather in Racine — Graph

°F

Racine temperature yesterday

Maximum temperature yesterday: 55 °F (at 11:53 PM)
Minimum temperature yesterday: 45 °F (at 5:53 AM)
Average temperature yesterday: 50 °F

Past Weeks' High & Low Weather Summary

 TemperatureHumidityPressure
High82 °F (Sep 29, 12:53 PM)97% (Sep 26, 2:53 AM)30.38 "Hg (Sep 26, 2:53 AM)
Low42 °F (Sep 22, 6:53 AM)38% (Sep 29, 2:53 PM)29.68 "Hg (Sep 21, 12:53 AM)
Average59 °F76%30.13 "Hg
* Reported Sep 16 3:53 PM — Oct 1 3:53 PM, Racine, Weather by CustomWeather, © 2014

Note: Actual official high and low records may vary slightly from our data, if they occured in-between our weather recording intervals... More about our weather records

Advertising

Racine weather history for previous 24 hours

 ConditionsComfort  
Time TempWeatherWind HumidityBarometerVisibility
3:53 PM
Oct 1
61 °FSunny.16 mph70%29.94 "Hg10 mi
2:53 PM61 °FPassing clouds.17 mph70%29.95 "Hg10 mi
1:53 PM61 °FPartly sunny.15 mph67%29.99 "Hg10 mi
12:53 PM62 °FPartly sunny.16 mph65%30.01 "Hg10 mi
11:53 AM60 °FPartly sunny.13 mph67%30.02 "Hg10 mi
11:01 AM61 °FScattered clouds.15 mph62%30.03 "Hg10 mi
10:53 AM60 °FPartly sunny.13 mph65%30.03 "Hg10 mi
9:53 AM59 °FOvercast.12 mph67%30.05 "Hg10 mi
8:53 AM58 °FOvercast.9 mph70%30.04 "Hg10 mi
7:53 AM57 °FOvercast.7 mph72%30.03 "Hg10 mi
6:53 AM57 °FOvercast.10 mph69%30.02 "Hg10 mi
5:53 AM57 °FOvercast.10 mph72%30.02 "Hg10 mi
4:53 AM57 °FOvercast.8 mph69%30.01 "Hg10 mi
3:53 AM56 °FOvercast.7 mph72%30.02 "Hg10 mi
2:53 AM57 °FOvercast.9 mph69%30.02 "Hg10 mi
1:53 AM56 °FOvercast.9 mph72%30.03 "Hg10 mi
12:53 AM56 °FOvercast.10 mph75%30.04 "Hg10 mi
11:53 PM
Sep 30
55 °FOvercast.No wind77%30.05 "Hg10 mi
10:53 PM54 °FOvercast.3 mph77%30.06 "Hg10 mi
9:53 PM54 °FOvercast.6 mph80%30.06 "Hg10 mi
8:53 PM52 °FLow clouds.6 mph93%30.06 "Hg10 mi
8:04 PM52 °FLight rain. Fog.8 mph89%30.04 "Hg6 mi
6:53 PM52 °FMostly cloudy.9 mph86%30.04 "Hg7 mi
5:53 PM53 °FMore clouds than sun.7 mph83%30.05 "Hg10 mi
5:00 PM52 °FLow clouds.12 mph86%30.04 "Hg10 mi
Weather by CustomWeather, © 2014

See weather overviewHow to use our weather pages